RH
74 84 68 76 75 73 72 61 64 70 81 81 86 88 87 90 87 90 94 84 93 95
75 76 83 76 72 76 71 67 68 65 73 78 86 86 86 90 88 92 92 91 91 92
72 68 78 80 74 73 65 70 86 76 68 79 83 89 90 91 88 92 94 93 92 92
69 73 69 78 76 78 66 68 82 86 87 88 81 83 87 90 89 90 90 89 92 89
64 71 73 67 78 70 75 61 81 80 78 83 85 86 91 91 83 90 93 92 91 91
62 64 69 70 63 73 64 73 80 79 86 84 78 84 91 94 92 90 90 90 92 91
56 60 60 62 66 58 67 67 70 87 77 75 83 84 87 92 94 94 92 89 88 91
48 49 53 54 62 61 62 65 61 69 77 76 78 73 90 91 93 94 93 92 91 87
43 45 48 52 59 61 60 65 66 65 66 79 72 80 86 85 92 94 92 92 90 84
48 46 51 50 55 64 60 66 71 68 68 77 76 85 86 85 85 92 93 93 88 80
60 54 48 62 56 52 59 62 67 73 72 70 72 89 86 84 75 88 86 84 88 79
86 86 72 66 65 56 52 68 64 69 76 73 85 94 89 91 91 91 92 89 78 81
82 87 89 80 71 71 59 57 69 74 76 82 98 98 96 95 96 94 83 75 78 81
88 84 81 94 92 94 78 77 79 98 99 98 95 98 97 99 93 85 79 71 68 77
Wind_Speed
11 5 7 5 4 4 5 6 9 8 7 8 7 7 6 4 4 5 5 6 4 3
11 11 7 8 6 5 6 5 8 11 10 9 7 7 7 5 6 4 4 5 5 4
14 13 8 7 8 7 7 5 6 8 12 8 8 8 9 7 5 5 4 3 4 2
13 13 12 7 7 7 8 7 8 7 6 8 11 11 8 6 5 3 3 3 4 3
14 13 13 14 8 10 9 9 8 10 12 9 9 7 7 7 5 5 6 6 5 5
16 15 15 15 15 10 12 9 7 9 8 11 12 8 7 6 7 7 6 7 6 6
17 17 17 15 15 15 11 10 11 8 12 12 8 9 6 6 6 7 7 6 6 7
18 18 17 16 15 15 13 14 14 12 11 10 11 9 8 8 8 7 7 5 6 7
13 18 18 17 14 17 15 15 15 15 14 13 12 12 15 11 9 8 9 9 8 5
15 15 16 17 18 16 18 14 17 17 15 15 15 13 17 17 9 9 7 7 6 5
11 14 14 12 17 18 16 18 17 16 17 16 11 15 16 17 11 8 8 9 7 7
7 7 10 14 14 15 15 14 16 14 17 16 10 15 16 12 7 4 3 2 5 8
7 8 9 10 12 12 13 15 11 13 14 14 8 11 11 6 7 6 7 6 9 15
7 10 10 8 7 6 9 7 9 7 4 7 11 10 12 6 4 5 8 8 7 5
Wind_Direction
196 204 208 202 206 204 175 197 204 198 190 196 195 203 203 220 219 228 218 219 222 234
193 203 190 196 209 202 212 202 204 200 192 195 189 199 201 211 220 222 213 218 220 215
192 198 197 194 206 201 221 216 186 194 188 188 194 198 206 210 213 225 221 201 194 210
190 192 202 203 211 206 211 206 184 180 184 192 206 208 202 206 209 216 207 222 212 237
190 188 197 210 209 205 199 224 176 187 197 197 212 206 195 197 205 214 223 222 197 226
188 194 197 202 211 206 202 206 197 188 191 202 212 212 207 187 193 214 209 208 203 216
189 195 201 202 204 210 201 197 209 194 206 209 208 214 200 177 188 211 212 217 202 198
190 192 198 202 199 203 201 200 209 207 212 207 213 215 192 189 195 207 215 203 210 204
185 193 196 199 198 201 204 202 203 212 212 210 220 201 189 187 199 197 194 194 206 202
188 195 197 198 196 199 203 198 204 209 207 217 219 190 191 195 199 193 196 197 184 186
201 206 204 195 202 204 198 200 201 204 206 217 215 183 189 200 204 201 195 193 170 167
205 210 205 206 206 206 205 201 206 202 202 210 203 171 174 169 175 155 243 108 75 124
237 208 205 206 208 203 207 210 201 203 201 201 155 173 172 172 157 156 119 84 70 94
254 240 225 196 187 177 196 191 193 138 111 127 144 117 94 9 101 137 134 126 122 115